Find Starlink 31937

NORAD ID: 59871 Int'l Des: 2024-098 Owner: SPXS Country: US Constellation: starlink operational
LEOCIRCULAR

現在のビュー

3D地球を読み込み中...

About Starlink 31937

Starlink 31937 (NORAD 59871) is a starlink constellation satellite (v2 mini) launched May 24, 2024 by SPXS of US. It operates in LEO, CIRCULAR orbit with a mass of 730.00 kg.

Starlink 31937について

説明を読み込み中...

次回通過

Passes for default location (London). Set your location on the main map for personalized predictions.

高度履歴

Loading altitude history...

軌道要素

1 59871U 24098P 26170.41208261 .00000536 00000-0 28990-4 0 9999
2 59871 43.0049 56.5682 0001073 262.4109 97.6620 15.27575133117489
Epoch: Jun 19, 2026 • Age: 19 hours

現在のステータス

高度 488.8 km
速度 7.62 km/s
衛星直下点 -25.16°S, 45.41°E
打ち上げ日 May 24, 2024
運用期間 2 years
タイプ internet

技術仕様

分類 Payload
質量 730.00 kg
乾燥質量 700.00 kg
総質量 730.00 kg
長さ 0.30 m
直径 4.10 m
スパン 29.00 m
形状 Box + pan
製造者 SPXS
バスタイプ Starlink V2M
フェーズステータス In Orbit
所有者/国 SPXS/US

Most Searched